This is the latest recevied weather packets stored in our database for station/object IW7DVM-13. If no packets are shown the sender has not sent any weather packets the latest 10 day(s).
| Time | Temp. | Humidity | Pressure | Rain* | Wind** | Luminosity | Snow |
|---|---|---|---|---|---|---|---|
| 1788041703 | 30° C | 51% | 1008.8 hPa | 0 mm | - | - | - |
| 1788041403 | 29.44° C | 52% | 1008.9 hPa | 0 mm | - | - | - |
| 1788041103 | 29.44° C | 54% | 1008.8 hPa | 0 mm | - | - | - |
| 1788040803 | 30° C | 54% | 1008.9 hPa | 0 mm | - | - | - |
| 1788040503 | 30° C | 55% | 1009.1 hPa | 0 mm | - | - | - |
| 1788040203 | 30° C | 54% | 1009 hPa | 0 mm | - | - | - |
| 1788039903 | 30° C | 54% | 1009.1 hPa | 0 mm | - | - | - |
| 1788039603 | 30° C | 54% | 1009.2 hPa | 0 mm | - | - | - |
| 1788039303 | 30° C | 54% | 1008.9 hPa | 0 mm | - | - | - |
| 1788039003 | 30.56° C | 54% | 1009 hPa | 0 mm | - | - | - |
| 1788038703 | 30.56° C | 55% | 1008.8 hPa | 0 mm | - | - | - |
| 1788038403 | 30.56° C | 56% | 1008.9 hPa | 0 mm | - | - | - |
| 1788038103 | 30.56° C | 56% | 1008.9 hPa | 0 mm | - | - | - |
| 1788037803 | 30.56° C | 56% | 1008.9 hPa | 0 mm | - | - | - |
| 1788037503 | 30.56° C | 56% | 1008.8 hPa | 0 mm | - | - | - |
| 1788037203 | 30.56° C | 56% | 1009.1 hPa | 0 mm | - | - | - |
| 1788036903 | 31.11° C | 56% | 1009.1 hPa | 0 mm | - | - | - |
| 1788036603 | 31.11° C | 54% | 1009.2 hPa | 0 mm | - | - | - |
| 1788036303 | 31.67° C | 52% | 1009.2 hPa | 0 mm | - | - | - |
| 1788036003 | 31.67° C | 51% | 1009.2 hPa | 0 mm | - | - | - |
| 1788035703 | 31.67° C | 49% | 1009.1 hPa | 0 mm | - | - | - |
| 1788035403 | 31.67° C | 48% | 1009 hPa | 0 mm | - | - | - |
| 1788035103 | 31.67° C | 51% | 1009.1 hPa | 0 mm | - | - | - |
| 1788034803 | 31.67° C | 52% | 1009.1 hPa | 0 mm | - | - | - |
| 1788034503 | 31.67° C | 53% | 1009.3 hPa | 0 mm | - | - | - |
* Rain latest hour (hover to see other rain measurements)
** Current wind speed in m/s (hover to see current wind gust speed)